CAPE
1 1 1 1 1 1 1 0 0 0 0 0 0 0 0 1 2 3 3 3 3 1 3 3 2 3 2 1 0 1 0 0 0 0 0 0 0 315 371 406 393 799 963 433 416 400 367 296 190 184 200 239 1236 1436 1132 1773 2162 2085 1979 694 64 226 897 710 1157 1180 638 962 1016 1141 1149 965 943 793 527 457 430 365 294 349 353 327 512 783 945 1053 1044 1226
2 1 1 2 2 2 0 0 1 1 1 0 0 0 0 0 1 3 3 3 2 3 2 2 3 2 2 0 0 0 0 0 0 0 0 0 5 317 405 409 794 1449 1159 443 354 270 245 150 125 142 155 495 212 1462 779 2077 2058 2345 1116 798 616 986 1334 1418 1483 1123 1445 966 1028 1094 976 888 924 856 516 778 432 298 340 372 362 493 632 875 979 948 1167 1426
2 2 2 2 1 2 2 0 1 2 2 1 0 0 0 0 0 0 2 3 3 4 2 2 1 2 1 0 0 0 0 0 0 0 0 0 24 23 0 702 1821 1386 506 396 246 179 114 126 144 128 102 131 144 735 831 1568 2049 1172 1562 654 1299 1712 1648 2205 2285 2027 1484 1130 1038 816 828 1164 818 775 356 958 358 302 408 357 452 420 634 926 947 1028 1275 1716
2 2 2 1 2 1 2 1 0 1 2 1 2 2 1 0 0 0 0 2 1 2 3 2 1 1 0 0 0 0 0 0 0 0 0 178 206 75 934 1912 1737 1018 420 241 209 101 111 129 111 86 59 82 136 720 1202 1102 2572 841 1919 1562 1918 1783 2002 2131 2266 2078 1560 1286 1039 1078 822 940 559 659 479 702 405 309 482 320 401 431 610 837 897 1050 1370 1688
2 2 1 1 1 1 1 1 1 2 1 1 1 1 2 1 0 0 0 0 1 1 2 4 1 0 0 0 0 0 0 0 0 0 29 259 380 276 1596 1532 1034 578 30 0 0 2 40 112 214 88 0 0 107 718 577 1253 1351 1784 1846 1751 2141 1991 2194 1842 2192 1850 1880 1190 1177 957 792 865 662 667 430 451 431 352 388 303 340 431 618 742 847 1013 1377 1422
1 1 1 1 1 1 1 1 1 1 1 1 1 2 1 2 1 0 0 0 0 1 3 2 1 0 0 0 0 0 0 0 0 26 443 419 299 878 1388 556 528 398 0 0 0 0 12 159 131 84 2 0 1 47 316 1238 1464 1575 1408 1851 2022 1909 2176 1910 1880 2082 2399 1691 1267 1283 1312 413 658 807 646 512 576 530 259 225 304 435 554 696 960 951 1112 1032
1 1 0 0 0 1 0 1 2 1 1 1 1 1 1 1 1 0 0 0 0 1 0 2 0 0 0 0 0 0 0 0 0 263 548 588 432 1065 1337 310 339 105 0 0 0 11 61 29 0 0 0 0 14 38 259 1133 1064 1523 1922 2134 1966 2030 1793 1686 1546 1726 1470 1880 2028 2232 917 837 562 880 731 662 729 538 218 246 385 435 607 702 857 705 668 1005
0 0 0 0 0 0 0 0 1 1 1 1 2 1 1 1 1 1 2 1 1 1 1 0 0 0 0 0 0 0 0 0 0 515 480 820 446 769 877 0 184 231 157 0 0 2 0 0 0 0 0 14 5 46 257 1494 1074 1730 2300 2107 2172 2164 1927 1363 1381 1482 1459 1596 2097 1393 1275 1405 843 979 537 659 469 267 257 318 422 425 518 578 540 559 865 1084
1 1 0 0 0 0 0 0 0 1 1 1 0 1 1 1 2 2 2 1 2 2 1 0 0 0 0 0 0 0 0 0 16 116 15 0 0 87 0 0 0 0 237 30 10 0 6 0 0 0 20 4 13 163 706 1555 1887 1180 1652 2080 2394 2386 2086 1414 1475 1606 1601 1622 1959 1700 1554 1034 1040 623 553 683 501 389 286 366 381 337 403 380 404 748 864 1032
1 1 0 0 0 0 0 0 0 0 0 0 0 2 1 1 1 1 3 1 1 1 0 0 0 0 0 0 0 0 0 52 197 16 0 0 1 0 0 0 0 0 0 0 258 0 0 1 0 0 0 9 132 470 711 978 1032 1510 1787 1956 2474 2173 2283 2009 1965 1554 1495 1490 1805 1386 885 803 798 555 568 489 346 265 352 397 348 232 322 396 546 750 906 982
1 1 1 1 1 0 0 0 0 0 0 0 1 3 2 1 2 0 1 2 0 1 1 0 0 0 0 0 0 0 0 0 146 151 7 6 0 0 0 0 0 0 0 0 237 0 0 0 0 0 0 244 676 813 1307 1115 1563 1874 1829 2011 2100 2206 2245 2099 2209 1944 1869 1563 1756 1342 706 848 814 536 666 510 251 390 388 374 297 191 330 542 616 802 974 1053
1 2 1 1 1 1 0 0 0 0 0 0 1 1 1 2 1 2 0 0 0 0 0 0 0 0 0 0 0 0 0 0 0 14 1 0 0 0 0 0 0 0 0 0 0 0 0 0 0 0 0 0 605 697 1085 1504 1916 1993 1856 2748 2205 2250 2719 2181 2580 2283 1782 1866 1322 1649 857 798 285 594 842 484 346 318 354 372 250 205 381 567 683 777 984 1113
1 1 1 1 1 1 1 1 0 0 0 0 0 0 0 0 1 0 0 0 0 0 0 0 0 0 0 2 0 0 0 0 0 0 0 0 0 0 0 0 0 0 0 0 0 0 0 0 0 0 0 0 648 1497 1367 1491 2306 2092 2048 958 1878 2194 2417 2068 2342 2158 1775 1983 1446 1277 619 618 579 848 625 607 390 335 390 490 280 232 349 498 608 701 862 958
0 0 0 1 1 1 1 2 1 0 0 0 0 0 0 1 0 0 0 0 0 0 0 0 0 0 2 0 0 0 0 0 0 0 0 0 0 0 0 0 0 0 0 0 0 21 0 0 0 0 0 2 1042 445 1167 1091 1443 1694 1697 966 409 166 1185 2024 1946 2168 2018 1847 1624 862 246 406 827 864 817 750 406 351 416 402 274 250 310 441 471 624 703 776
0 0 0 1 1 1 1 1 0 0 0 0 0 0 0 0 0 0 0 0 0 0 0 0 0 1 84 0 0 0 0 0 0 0 0 0 0 0 0 0 0 0 0 0 0 0 0 0 0 0 88 40 690 693 654 409 757 664 270 319 142 64 1050 2022 2216 1940 2495 2250 1397 1139 850 424 678 783 894 794 590 386 331 285 264 256 272 329 437 520 554 629
0 0 0 1 1 2 1 1 0 0 0 0 0 0 0 0 0 0 0 0 0 0 0 0 0 0 0 0 0 0 0 0 0 0 0 0 0 0 0 0 0 0 0 0 0 0 0 0 0 50 68 175 394 238 27 1 228 370 0 9 38 67 31 1267 2012 1832 1688 1837 1610 1209 768 681 508 731 634 578 801 516 311 257 269 266 254 291 379 446 473 496
1 0 0 0 1 1 1 1 1 0 0 0 0 0 0 0 0 0 0 0 0 0 0 0 0 0 0 0 0 0 0 0 0 0 0 0 0 0 0 0 0 0 0 0 0 0 0 0 0 0 0 33 106 0 0 0 0 0 3 0 18 3 0 101 1501 1491 1613 1436 2007 1477 1047 1039 512 885 836 485 752 528 447 310 287 294 309 358 410 412 474 554
1 0 0 0 1 1 1 1 1 1 0 0 0 0 0 0 0 0 0 0 0 0 0 0 0 0 0 0 0 0 0 0 0 0 0 0 0 0 0 0 0 0 0 0 0 0 0 0 0 0 3 0 2 0 0 0 6 0 0 0 98 0 206 102 204 1574 1472 1745 1110 1534 1184 1071 1138 669 790 662 378 623 597 384 336 329 356 404 410 456 489 487
2 1 1 1 1 1 1 1 1 0 0 0 0 0 1 0 0 0 0 0 0 39 18 49 0 0 0 0 0 0 0 0 0 0 0 0 0 0 0 0 0 0 0 0 0 0 0 0 0 0 0 0 5 1 0 0 0 3 0 0 0 0 0 32 777 1494 1182 1386 1793 1471 1332 1184 1211 1015 849 814 390 391 470 593 541 446 425 522 465 406 438 475
2 2 1 1 1 1 1 1 0 0 0 0 0 0 0 7 2 0 0 0 0 0 0 0 0 0 0 0 0 0 0 0 0 0 0 0 0 0 0 0 0 0 0 0 0 0 0 0 0 0 0 0 0 4 0 0 0 0 2 7 0 8 61 1363 1450 1294 1276 1273 1517 1435 1460 1192 1188 1070 1125 852 711 284 368 450 462 442 424 412 348 357 384 470
2 2 1 1 1 2 1 1 0 0 0 0 0 0 0 0 0 0 0 0 0 0 0 0 0 0 0 0 0 0 0 0 0 0 0 0 0 0 0 0 0 0 0 0 0 0 0 0 0 0 0 0 0 0 0 0 0 0 0 0 0 17 114 1180 1145 1407 1413 1214 1433 1150 1160 1216 1428 1150 1183 1120 794 482 313 349 342 284 318 296 363 395 421 494
3 1 1 1 1 0 1 0 0 0 0 0 0 0 0 0 0 0 0 0 0 0 0 0 0 0 0 0 0 0 0 0 0 0 0 0 0 0 0 0 0 0 0 0 0 0 0 0 0 0 0 0 0 0 0 0 0 0 0 0 0 0 324 929 1746 1231 1584 1198 974 902 743 1104 1354 1316 1147 1180 844 610 388 320 276 262 214 257 304 388 416 384
2 2 1 1 1 0 0 0 0 0 0 0 0 0 0 0 0 0 0 0 0 0 0 0 0 0 0 0 0 0 0 0 0 0 0 0 0 0 0 0 0 0 0 0 0 0 0 0 0 0 0 0 0 0 0 0 0 0 0 0 0 299 34 8 1526 1504 1442 1141 1212 991 732 879 1392 1309 1316 1135 1184 1071 1055 678 430 258 285 250 253 324 371 409
3 1 3 1 1 1 0 0 0 0 0 0 0 0 0 0 0 0 0 0 0 0 0 0 0 0 0 0 0 0 0 0 0 0 0 0 0 0 0 0 0 0 0 0 0 0 0 0 0 0 0 0 0 0 0 0 0 0 0 0 0 4 59 75 1128 1596 1324 1197 1058 827 782 997 1318 1434 1193 1164 989 1226 1358 1263 1195 680 364 325 302 314 357 447
2 2 2 2 1 1 0 0 0 0 0 0 0 0 0 0 0 0 0 0 0 0 0 0 0 0 0 0 0 0 0 0 0 0 0 0 0 0 0 0 0 0 0 0 0 0 0 0 0 0 0 0 0 0 0 0 0 0 0 0 0 0 0 389 1530 1538 1493 1090 1126 865 203 1039 1203 1241 1151 1134 891 803 1000 971 854 902 581 440 363 355 313 384
2 2 3 2 0 1 0 0 0 0 0 0 0 0 0 0 0 0 0 0 0 0 0 0 0 0 0 0 0 0 0 0 0 0 0 0 0 0 0 0 0 0 0 0 0 0 0 0 0 0 0 0 0 0 0 0 0 0 4 0 0 0 0 466 1264 808 105 70 1020 1021 241 268 1126 1009 1038 1022 790 815 963 915 968 835 719 498 453 372 373 347
2 3 2 2 1 0 0 0 0 0 0 0 0 0 0 0 0 0 0 0 0 0 0 0 0 0 0 0 0 0 0 0 0 0 0 0 0 0 0 0 0 0 0 0 0 0 0 0 0 0 0 0 0 0 0 0 0 0 269 45 14 13 93 608 726 340 245 723 1323 819 803 400 620 1304 896 662 682 934 1025 1067 1047 817 702 391 421 342 352 314
2 2 1 1 0 0 0 0 0 0 0 0 0 0 0 0 0 0 0 0 0 0 0 0 0 0 0 0 0 0 0 0 0 0 0 0 0 0 0 0 0 0 0 0 0 0 0 0 0 0 0 0 0 0 0 0 0 223 360 63 10 10 283 914 773 368 657 202 51 290 854 662 568 939 1226 686 808 758 934 1027 1125 952 752 592 444 311 272 304
1 1 0 0 0 0 0 0 0 0 0 0 0 0 0 0 0 0 0 0 0 0 0 0 0 0 0 0 0 0 0 0 0 0 0 0 0 0 0 0 0 0 0 0 0 0 0 0 0 0 0 0 0 0 0 0 0 341 611 143 414 440 607 911 454 326 674 259 2 236 478 184 90 1167 673 979 601 716 620 696 732 1091 1040 830 416 321 259 370
0 0 0 0 0 0 0 0 0 0 0 0 0 0 0 0 0 0 0 0 0 0 0 0 0 0 0 0 0 0 0 0 0 0 0 0 0 0 0 0 0 0 0 0 0 0 0 0 0 0 0 0 0 0 0 0 434 467 520 484 462 568 750 757 543 444 303 146 124 448 630 497 38 476 961 895 1039 782 478 648 666 817 1111 1081 650 396 356 421
0 0 0 1 0 0 0 0 0 0 0 0 0 0 0 0 0 0 0 0 0 0 0 0 0 0 0 0 0 0 0 0 0 0 0 0 0 0 0 0 0 0 0 0 0 0 0 0 0 0 0 0 39 51 149 349 406 457 455 345 406 817 731 689 433 500 21 1 259 1199 743 810 146 514 634 810 672 706 863 760 546 490 741 1208 1022 482 354 472
0 0 0 0 0 0 0 0 0 0 0 0 0 0 0 0 0 0 0 0 0 0 0 0 0 0 0 0 0 0 0 0 0 0 0 0 0 0 0 0 0 0 0 0 0 0 0 0 0 0 0 0 158 194 248 296 415 501 334 325 36 358 265 160 116 19 0 192 56 644 1166 796 433 110 152 533 666 725 705 672 602 584 648 809 1081 858 535 291
0 0 0 0 0 0 0 0 0 0 0 0 0 0 0 0 0 0 0 0 0 0 0 0 0 0 0 0 0 0 0 0 0 0 0 0 0 0 0 0 0 0 0 0 0 0 0 0 0 0 20 137 133 0 476 521 602 576 201 285 21 0 7 10 3 0 0 375 560 414 979 201 0 21 197 264 794 1102 1000 930 720 639 704 633 680 951 692 566
0 0 0 0 0 0 0 0 0 0 0 0 0 0 0 0 0 28 0 0 0 0 0 0 0 0 0 0 0 0 0 0 0 0 0 0 0 0 0 0 0 0 0 0 0 0 0 0 0 0 0 45 213 6 0 0 89 219 59 0 0 0 0 10 6 2 20 2 222 1371 479 171 0 692 717 1191 989 1650 1623 1376 1193 1033 982 930 770 1116 769 698
0 0 0 0 0 0 0 0 0 0 0 0 0 0 0 0 0 0 0 0 0 0 0 0 0 0 0 0 0 0 0 0 0 0 0 0 0 0 0 0 0 0 0 0 0 0 0 0 0 0 28 125 184 195 121 0 0 118 104 11 2 0 26 0 21 0 0 0 54 886 155 0 0 1078 1344 1403 1254 1502 1516 1567 1757 1339 1266 1152 1052 1186 735 637
0 0 0 0 0 0 0 0 0 0 0 0 0 0 0 0 0 0 0 0 0 0 0 0 0 0 0 0 0 0 0 0 0 0 0 0 0 0 0 0 0 0 0 0 0 0 0 0 0 0 0 0 47 12 108 12 2 155 3 17 1 23 0 68 49 110 46 2 3 0 0 1 0 30 730 1287 1410 1131 1510 1529 1216 1428 1517 1433 962 726 692 588
0 0 0 0 0 0 0 0 0 0 0 0 0 0 0 0 0 0 0 0 0 0 0 0 0 0 0 0 0 0 0 0 0 0 0 0 0 0 0 0 0 0 0 0 0 0 0 0 0 0 0 0 0 185 282 291 74 54 0 0 62 14 14 0 2 213 15 0 134 4 0 0 0 17 84 1562 1592 1229 1558 1679 1233 1633 1825 1471 1270 1133 966 743
0 0 0 0 0 0 0 0 0 0 0 0 0 0 0 0 0 0 0 0 0 0 0 0 0 0 0 0 0 0 0 0 0 0 0 0 0 0 0 0 0 0 0 0 0 0 0 0 0 0 0 0 0 91 239 119 120 12 0 41 0 0 2 9 0 12 13 19 37 15 10 7 0 9 32 304 493 1386 1774 1773 1536 1501 1433 1382 1511 1629 1548 1458
0 0 0 0 0 0 0 0 0 0 0 0 0 0 0 0 0 0 0 0 0 0 0 0 0 0 0 0 0 0 0 0 0 0 0 0 0 0 0 0 0 0 0 0 0 0 0 0 0 0 0 0 0 0 0 0 64 136 40 34 0 0 0 0 0 0 0 11 2 15 19 23 37 0 0 290 1300 1417 1619 1636 1747 1668 1677 1583 1782 1768 1968 1712
0 0 0 0 0 0 0 0 0 0 0 0 0 0 0 0 0 0 0 0 0 0 0 0 0 0 0 0 0 0 0 0 0 0 0 0 0 0 0 0 0 0 0 0 0 0 0 0 0 0 0 0 0 0 0 0 0 0 0 0 0 0 0 0 0 0 2 12 13 15 9 8 313 1441 842 2010 2155 1660 1765 1644 1937 1816 1926 1744 1982 1975 2373 2385
0 0 0 0 0 0 0 0 0 0 0 0 0 0 0 0 0 0 0 0 0 0 0 0 0 0 0 0 0 0 0 0 0 0 0 0 0 0 0 0 0 0 0 0 0 0 0 0 0 0 0 0 0 0 0 0 0 0 0 0 0 0 0 0 3 0 0 0 1 4 7 9 1219 2380 1821 2138 1864 1778 1753 2197 1790 2169 1994 2088 1896 1861 1748 1559
0 0 0 0 0 0 0 0 0 0 0 0 0 0 0 0 0 0 0 0 0 0 0 0 0 0 0 0 0 0 0 0 0 0 0 0 0 0 0 0 0 0 0 0 0 0 0 0 0 0 0 0 0 0 0 0 0 0 0 0 0 0 0 0 0 0 0 0 0 0 0 2 879 1996 1920 1837 2114 2321 2330 2091 2150 2026 2083 1856 1709 1493 1692 1686
0 0 0 0 0 0 0 0 0 0 0 0 0 0 0 0 0 0 0 0 0 0 0 0 0 0 0 0 0 0 0 0 0 0 0 0 0 0 0 0 0 0 0 0 0 0 0 0 0 0 0 0 0 0 8 6 5 0 0 0 0 0 0 0 0 0 0 2 0 0 0 1 1941 1753 2260 1856 2087 2091 1997 2377 2320 1838 1912 1731 1508 1869 1923 1835
0 0 0 0 0 0 0 0 0 0 0 0 0 0 0 0 0 0 0 0 0 0 0 0 0 0 0 0 0 0 0 0 0 0 0 0 0 0 0 0 0 0 0 0 0 0 0 0 0 0 0 0 0 0 0 1 1 0 0 0 0 0 0 0 0 0 0 0 0 0 0 0 176 2382 1872 2064 2104 2068 2230 2350 2137 2005 1836 1602 1546 1814 1848 1936
0 0 0 0 0 0 0 0 0 0 0 0 0 0 0 0 0 0 0 0 0 0 0 0 0 0 0 0 0 0 0 0 0 0 0 0 0 0 0 0 0 0 0 14 34 0 0 0 0 0 0 0 0 0 1 0 0 0 0 26 45 0 0 0 0 1 0 0 65 0 0 1 983 1884 2183 1614 2125 2207 2466 2492 2159 1910 1909 1709 1429 1416 1798 1844
0 0 0 0 0 0 0 0 0 0 0 0 0 0 0 0 0 0 0 0 0 0 0 0 0 0 0 0 0 0 0 0 0 0 0 0 0 0 0 0 0 0 142 424 54 0 0 0 0 0 0 0 0 45 0 0 0 0 0 0 0 0 0 0 0 0 0 0 5 0 0 0 2 754 1627 1361 1584 1751 2225 2650 2272 2030 1733 1405 1381 1503 1575 1816
0 0 0 0 0 0 0 0 0 0 0 0 0 0 0 0 0 0 0 0 0 0 0 0 0 0 0 0 0 0 0 0 0 0 0 0 0 0 0 0 0 337 892 39 171 0 44 0 1 126 0 0 0 0 0 0 0 0 0 0 0 1 0 0 0 0 331 0 0 0 30 8 1 0 0 368 1422 1392 1489 2107 2428 1979 1490 1316 1509 1703 1566 1640
0 0 0 0 0 0 0 0 0 0 0 0 0 0 0 0 0 0 0 0 0 0 0 0 0 0 0 0 0 0 0 0 0 0 0 0 0 0 0 0 8 786 356 0 51 11 0 0 1 0 0 0 0 0 0 0 0 0 0 0 0 3 11 0 0 0 0 0 0 152 252 54 5 0 26 586 965 1035 1467 2054 2258 1988 1510 1489 1523 1615 1614 1544
0 0 0 0 0 0 0 0 0 0 0 0 0 0 0 0 0 0 0 0 0 0 0 0 0 0 0 0 0 0 0 0 0 0 0 0 0 0 0 0 44 33 19 1 0 327 66 8 17 0 3 0 0 0 0 0 0 0 0 0 0 0 2 0 0 0 0 0 0 0 38 76 17 1 518 1400 1494 1246 1811 2222 2106 1844 1564 1499 1540 1570 1563 1542
0 0 0 0 0 0 0 0 0 0 0 0 0 0 0 0 0 0 0 0 0 0 0 0 0 0 0 0 0 0 34 62 95 29 0 0 0 0 2 0 6 1 0 0 0 94 50 258 59 3 0 2 16 14 0 1 0 0 0 0 0 0 0 0 0 0 0 0 0 1 110 169 32 1436 1521 1843 1779 2044 2045 2004 2138 1949 1479 1535 1578 1537 1656 1685
0 0 0 0 0 0 0 0 0 0 0 0 0 0 0 0 0 0 0 0 0 0 0 0 0 0 0 0 0 0 0 4 25 52 58 18 58 11 30 0 10 12 0 2 0 19 0 658 65 0 0 0 0 0 0 0 0 0 0 0 0 0 0 0 0 0 2 4 14 62 78 51 1775 1207 1585 2052 2017 2130 2097 2123 2078 1755 1512 1644 1680 1784 1837 1844
0 1 0 0 0 0 0 0 0 0 0 0 0 0 0 0 0 0 0 0 0 0 0 0 0 0 4 0 3 2 0 0 6 2 36 58 38 37 0 0 5 0 0 7 1 5 0 169 4 0 0 0 22 2 0 0 0 0 0 0 0 0 0 0 0 37 26 0 6 31 30 81 908 1465 1264 1973 1768 1975 2028 1970 1964 1601 1644 1638 1731 1768 1909 1744
Wind_Speed
nan nan nan nan nan nan nan nan nan nan nan nan nan nan nan nan nan nan nan nan nan nan nan nan nan nan nan nan nan nan nan nan nan nan nan nan nan 18 15 18 15 12 9 7 9 9 9 9 10 8 12 13 9 15 11 14 13 14 15 13 nan 4 4 3 3 3 7 3 8 8 6 5 7 8 6 8 7 5 6 4 5 3 4 5 11 12 12 12
nan nan nan nan nan nan nan nan nan nan nan nan nan nan nan nan nan nan nan nan nan nan nan nan nan nan nan nan nan nan nan nan nan nan nan nan nan 15 15 17 16 15 9 7 7 7 5 6 7 8 10 9 6 10 14 10 11 13 11 14 5 8 3 5 4 3 5 4 6 7 5 5 5 9 8 9 8 8 7 6 7 6 8 10 13 14 13 12
nan nan nan nan nan nan nan nan nan nan nan nan nan nan nan nan nan nan nan nan nan nan nan nan nan nan nan nan nan nan nan nan nan nan nan nan nan nan nan 19 19 14 7 6 4 1 2 3 3 8 5 8 4 7 11 8 13 6 10 8 3 4 1 3 4 2 3 1 6 7 5 6 6 8 8 8 7 8 6 7 8 7 11 13 15 14 13 12
nan nan nan nan nan nan nan nan nan nan nan nan nan nan nan nan nan nan nan nan nan nan nan nan nan nan nan nan nan nan nan nan nan nan nan 15 14 nan 15 18 18 12 4 4 5 3 4 2 1 nan nan nan 2 6 8 7 13 6 11 4 1 4 5 1 2 3 4 5 5 6 5 6 8 6 8 5 5 4 3 5 5 9 13 15 16 15 13 12
nan nan nan nan nan nan nan nan nan nan nan nan nan nan nan nan nan nan nan nan nan nan nan nan nan nan nan nan nan nan nan nan nan nan nan 14 14 15 14 16 14 11 nan nan nan nan nan 1 2 nan nan nan 2 6 5 5 9 7 4 1 1 4 3 1 0 2 4 5 5 6 8 7 6 7 8 7 3 1 0 5 3 10 14 17 17 16 13 12
nan nan nan nan nan nan nan nan nan nan nan nan nan nan nan nan nan nan nan nan nan nan nan nan nan nan nan nan nan nan nan nan nan nan 14 13 14 16 14 15 8 6 nan nan nan nan nan 3 4 nan nan nan nan nan 3 3 6 4 1 0 2 3 1 1 2 2 4 4 6 8 5 5 6 5 6 7 3 2 3 4 5 10 14 16 15 15 14 12
nan nan nan nan nan nan nan nan nan nan nan nan nan nan nan nan nan nan nan nan nan nan nan nan nan nan nan nan nan nan nan nan nan 15 18 13 14 17 14 11 7 8 nan nan nan nan nan nan nan nan nan nan nan nan 4 2 2 6 2 0 2 1 2 2 2 4 6 4 5 4 5 6 6 3 3 6 5 1 1 6 7 11 14 16 16 14 13 11
nan nan nan nan nan nan nan nan nan nan nan nan nan nan nan nan nan nan nan nan nan nan nan nan nan nan nan nan nan nan nan nan nan 13 17 15 14 15 13 nan 9 9 7 nan nan nan nan nan nan nan nan nan nan nan 5 2 2 3 2 1 2 0 0 2 2 5 7 8 7 7 6 4 4 1 3 3 3 4 6 7 10 12 14 15 14 14 12 11
nan nan nan nan nan nan nan nan nan nan nan nan nan nan nan nan nan nan nan nan nan nan nan nan nan nan nan nan nan nan nan nan nan 15 nan nan nan nan nan nan nan nan 6 nan nan nan nan nan nan nan nan nan nan 6 6 3 7 6 6 3 2 2 1 1 3 3 5 6 8 8 3 4 5 3 3 3 3 6 8 9 10 12 13 13 13 12 12 10
nan nan nan nan nan nan nan nan nan nan nan nan nan nan nan nan nan nan nan nan nan nan nan nan nan nan nan nan nan nan nan nan 12 nan nan nan nan nan nan nan nan nan nan nan 6 nan nan nan nan nan nan nan 7 11 7 8 10 7 8 6 4 4 3 1 1 2 3 6 7 10 3 6 1 5 5 2 4 7 10 10 10 12 12 11 11 12 11 10
nan nan nan nan nan nan nan nan nan nan nan nan nan nan nan nan nan nan nan nan nan nan nan nan nan nan nan nan nan nan nan nan 11 12 nan nan nan nan nan nan nan nan nan nan 4 nan nan nan nan nan nan 14 6 12 8 13 9 11 9 10 8 7 5 4 2 1 5 5 5 11 8 7 6 2 4 4 7 6 10 10 10 11 11 10 11 11 10 9
nan nan nan nan nan nan nan nan nan nan nan nan nan nan nan nan nan nan nan nan nan nan nan nan nan nan nan nan nan nan nan nan nan nan nan nan nan nan nan nan nan nan nan nan nan nan nan nan nan nan nan nan 9 8 13 11 11 10 8 5 10 8 8 6 4 3 3 5 4 4 11 12 10 3 6 8 7 7 8 10 10 10 10 10 10 10 10 9
nan nan nan nan nan nan nan nan nan nan nan nan nan nan nan nan nan nan nan nan nan nan nan nan nan nan nan nan nan nan nan nan nan nan nan nan nan nan nan nan nan nan nan nan nan nan nan nan nan nan nan nan 13 11 8 8 11 9 9 6 8 10 12 11 8 5 1 5 1 5 6 12 8 7 7 8 8 8 8 9 10 9 10 9 9 9 9 8
nan nan nan nan nan nan nan nan nan nan nan nan nan nan nan nan nan nan nan nan nan nan nan nan nan nan nan nan nan nan nan nan nan nan nan nan nan nan nan nan nan nan nan nan nan nan nan nan nan nan nan nan 12 10 6 9 9 7 12 6 9 9 13 14 10 8 4 6 2 5 4 10 13 8 10 8 7 9 8 8 9 10 9 9 9 8 9 8
nan nan nan nan nan nan nan nan nan nan nan nan nan nan nan nan nan nan nan nan nan nan nan nan nan nan nan nan nan nan nan nan nan nan nan nan nan nan nan nan nan nan nan nan nan nan nan nan nan nan nan nan 9 6 7 9 11 11 8 11 12 nan 14 15 12 12 7 11 5 4 2 10 3 11 10 8 7 8 7 6 9 10 8 9 8 9 8 6
nan nan nan nan nan nan nan nan nan nan nan nan nan nan nan nan nan nan nan nan nan nan nan nan nan nan nan nan nan nan nan nan nan nan nan nan nan nan nan nan nan nan nan nan nan nan nan nan nan nan nan 8 4 6 nan nan 11 14 nan nan nan nan nan 14 16 13 10 7 8 6 5 6 11 12 11 7 8 6 6 4 7 10 10 9 8 7 6 4
nan nan nan nan nan nan nan nan nan nan nan nan nan nan nan nan nan nan nan nan nan nan nan nan nan nan nan nan nan nan nan nan nan nan nan nan nan nan nan nan nan nan nan nan nan nan nan nan nan nan nan nan 8 nan nan nan nan nan nan nan nan nan nan 14 16 15 11 8 7 9 4 7 13 8 12 9 7 9 6 5 6 8 8 9 7 6 5 3
nan nan nan nan nan nan nan nan nan nan nan nan nan nan nan nan nan nan nan nan nan nan nan nan nan nan nan nan nan nan nan nan nan nan nan nan nan nan nan nan nan nan nan nan nan nan nan nan nan nan nan nan nan nan nan nan nan nan nan nan nan nan 15 14 13 19 9 10 5 6 3 3 10 10 9 9 9 9 6 5 5 7 8 8 6 4 4 3
nan nan nan nan nan nan nan nan nan nan nan nan nan nan nan nan nan nan nan nan nan nan nan nan nan nan nan nan nan nan nan nan nan nan nan nan nan nan nan nan nan nan nan nan nan nan nan nan nan nan nan nan nan nan nan nan nan nan nan nan nan nan nan nan 16 16 11 6 4 4 4 7 7 10 12 9 10 9 6 3 3 4 5 7 6 4 3 3
nan nan nan nan nan nan nan nan nan nan nan nan nan nan nan nan nan nan nan nan nan nan nan nan nan nan nan nan nan nan nan nan nan nan nan nan nan nan nan nan nan nan nan nan nan nan nan nan nan nan nan nan nan nan nan nan nan nan nan nan nan nan nan 18 15 13 10 4 4 6 5 5 6 8 11 10 9 7 4 4 3 2 4 7 7 6 3 3
nan nan nan nan nan nan nan nan nan nan nan nan nan nan nan nan nan nan nan nan nan nan nan nan nan nan nan nan nan nan nan nan nan nan nan nan nan nan nan nan nan nan nan nan nan nan nan nan nan nan nan nan nan nan nan nan nan nan nan nan nan nan 12 17 14 13 9 5 8 6 4 4 5 7 10 10 6 5 3 3 3 2 4 6 7 6 5 2
nan nan nan nan nan nan nan nan nan nan nan nan nan nan nan nan nan nan nan nan nan nan nan nan nan nan nan nan nan nan nan nan nan nan nan nan nan nan nan nan nan nan nan nan nan nan nan nan nan nan nan nan nan nan nan nan nan nan nan nan nan nan 16 16 14 14 12 5 6 7 5 4 5 6 9 8 4 3 2 2 2 2 4 5 8 8 5 3
nan nan nan nan nan nan nan nan nan nan nan nan nan nan nan nan nan nan nan nan nan nan nan nan nan nan nan nan nan nan nan nan nan nan nan nan nan nan nan nan nan nan nan nan nan nan nan nan nan nan nan nan nan nan nan nan nan nan nan nan nan 18 nan nan 15 13 12 6 7 10 7 5 8 8 7 7 6 6 7 4 1 2 3 6 9 9 7 5
nan nan nan nan nan nan nan nan nan nan nan nan nan nan nan nan nan nan nan nan nan nan nan nan nan nan nan nan nan nan nan nan nan nan nan nan nan nan nan nan nan nan nan nan nan nan nan nan nan nan nan nan nan nan nan nan nan nan nan nan nan nan nan nan 16 15 12 11 7 4 3 3 9 10 10 6 6 6 6 5 4 4 4 4 5 5 6 6
nan nan nan nan nan nan nan nan nan nan nan nan nan nan nan nan nan nan nan nan nan nan nan nan nan nan nan nan nan nan nan nan nan nan nan nan nan nan nan nan nan nan nan nan nan nan nan nan nan nan nan nan nan nan nan nan nan nan nan nan nan nan nan 12 18 12 8 11 13 8 8 11 13 9 7 8 6 3 4 4 2 2 4 3 3 4 4 4
nan nan nan nan nan nan nan nan nan nan nan nan nan nan nan nan nan nan nan nan nan nan nan nan nan nan nan nan nan nan nan nan nan nan nan nan nan nan nan nan nan nan nan nan nan nan nan nan nan nan nan nan nan nan nan nan nan nan nan nan nan nan nan 11 14 7 4 nan 16 6 8 9 11 11 10 8 8 4 3 4 4 1 3 2 1 3 3 4
nan nan nan nan nan nan nan nan nan nan nan nan nan nan nan nan nan nan nan nan nan nan nan nan nan nan nan nan nan nan nan nan nan nan nan nan nan nan nan nan nan nan nan nan nan nan nan nan nan nan nan nan nan nan nan nan nan nan 18 nan nan nan nan 12 11 7 10 12 12 8 8 7 6 16 13 13 10 6 4 4 5 3 1 2 2 2 2 2
nan nan nan nan nan nan nan nan nan nan nan nan nan nan nan nan nan nan nan nan nan nan nan nan nan nan nan nan nan nan nan nan nan nan nan nan nan nan nan nan nan nan nan nan nan nan nan nan nan nan nan nan nan nan nan nan nan 15 12 nan nan nan 11 14 9 9 11 6 nan 9 9 4 9 13 14 14 11 10 8 7 5 5 4 2 2 1 1 1
nan nan nan nan nan nan nan nan nan nan nan nan nan nan nan nan nan nan nan nan nan nan nan nan nan nan nan nan nan nan nan nan nan nan nan nan nan nan nan nan nan nan nan nan nan nan nan nan nan nan nan nan nan nan nan nan nan 9 8 9 12 11 13 12 10 10 9 2 nan 12 11 9 nan 14 13 8 7 4 2 5 5 4 5 5 4 3 1 3
nan nan nan nan nan nan nan nan nan nan nan nan nan nan nan nan nan nan nan nan nan nan nan nan nan nan nan nan nan nan nan nan nan nan nan nan nan nan nan nan nan nan nan nan nan nan nan nan nan nan nan nan nan nan nan nan 7 10 7 8 12 13 12 11 9 9 6 3 13 14 11 11 nan 11 13 10 7 3 4 3 6 8 5 6 6 5 5 4
nan nan nan nan nan nan nan nan nan nan nan nan nan nan nan nan nan nan nan nan nan nan nan nan nan nan nan nan nan nan nan nan nan nan nan nan nan nan nan nan nan nan nan nan nan nan nan nan nan nan nan nan nan nan 6 2 5 7 7 7 10 13 12 7 9 6 nan nan 16 16 13 10 9 13 14 14 12 9 7 8 4 4 4 8 9 7 5 6
nan nan nan nan nan nan nan nan nan nan nan nan nan nan nan nan nan nan nan nan nan nan nan nan nan nan nan nan nan nan nan nan nan nan nan nan nan nan nan nan nan nan nan nan nan nan nan nan nan nan nan nan 5 5 8 6 7 7 6 6 nan 10 7 5 6 nan nan 11 nan 16 10 6 8 12 13 12 10 9 9 9 8 9 5 6 10 9 8 8
nan nan nan nan nan nan nan nan nan nan nan nan nan nan nan nan nan nan nan nan nan nan nan nan nan nan nan nan nan nan nan nan nan nan nan nan nan nan nan nan nan nan nan nan nan nan nan nan nan nan nan 5 6 nan 7 7 7 6 5 3 nan nan nan nan nan nan nan 19 15 14 15 6 nan nan 15 16 15 12 10 11 12 11 8 6 7 10 11 11
nan nan nan nan nan nan nan nan nan nan nan nan nan nan nan nan nan nan nan nan nan nan nan nan nan nan nan nan nan nan nan nan nan nan nan nan nan nan nan nan nan nan nan nan nan nan nan nan nan nan nan nan 8 nan nan nan nan 6 nan nan nan nan nan nan nan nan nan nan 13 14 6 12 nan 15 14 18 17 16 13 11 12 13 13 11 12 13 11 12
nan nan nan nan nan nan nan nan nan nan nan nan nan nan nan nan nan nan nan nan nan nan nan nan nan nan nan nan nan nan nan nan nan nan nan nan nan nan nan nan nan nan nan nan nan nan nan nan nan nan nan 5 4 2 5 nan nan 4 2 nan nan nan nan nan nan nan nan nan nan 13 7 nan nan 17 16 17 16 15 15 15 14 12 12 12 12 12 12 11
nan nan nan nan nan nan nan nan nan nan nan nan nan nan nan nan nan nan nan nan nan nan nan nan nan nan nan nan nan nan nan nan nan nan nan nan nan nan nan nan nan nan nan nan nan nan nan nan nan nan nan nan nan nan 1 nan nan 10 nan nan nan nan nan nan nan 9 nan nan nan nan nan nan nan nan 14 17 15 14 15 15 14 13 13 13 13 14 15 10
nan nan nan nan nan nan nan nan nan nan nan nan nan nan nan nan nan nan nan nan nan nan nan nan nan nan nan nan nan nan nan nan nan nan nan nan nan nan nan nan nan nan nan nan nan nan nan nan nan nan nan nan nan 4 3 3 nan nan nan nan nan nan nan nan nan 9 nan nan 9 nan nan nan nan nan nan 19 18 20 20 17 17 16 13 11 13 14 15 11
nan nan nan nan nan nan nan nan nan nan nan nan nan nan nan nan nan nan nan nan nan nan nan nan nan nan nan nan nan nan nan nan nan nan nan nan nan nan nan nan nan nan nan nan nan nan nan nan nan nan nan nan nan nan 6 6 5 nan nan nan nan nan nan nan nan nan nan nan nan nan nan nan nan nan nan 17 18 22 22 21 19 17 15 14 14 14 16 14
nan nan nan nan nan nan nan nan nan nan nan nan nan nan nan nan nan nan nan nan nan nan nan nan nan nan nan nan nan nan nan nan nan nan nan nan nan nan nan nan nan nan nan nan nan nan nan nan nan nan nan nan nan nan nan nan nan 4 nan nan nan nan nan nan nan nan nan nan nan nan nan nan nan nan nan 19 23 23 24 22 21 21 21 17 17 15 15 14
nan nan nan nan nan nan nan nan nan nan nan nan nan nan nan nan nan nan nan nan nan nan nan nan nan nan nan nan nan nan nan nan nan nan nan nan nan nan nan nan nan nan nan nan nan nan nan nan nan nan nan nan nan nan nan nan nan nan nan nan nan nan nan nan nan nan nan nan nan nan nan nan 17 19 20 24 23 23 23 23 24 23 24 22 21 18 18 17
nan nan nan nan nan nan nan nan nan nan nan nan nan nan nan nan nan nan nan nan nan nan nan nan nan nan nan nan nan nan nan nan nan nan nan nan nan nan nan nan nan nan nan nan nan nan nan nan nan nan nan nan nan nan nan nan nan nan nan nan nan nan nan nan nan nan nan nan nan nan nan nan 20 16 20 23 23 22 23 22 23 26 25 25 23 20 19 17
nan nan nan nan nan nan nan nan nan nan nan nan nan nan nan nan nan nan nan nan nan nan nan nan nan nan nan nan nan nan nan nan nan nan nan nan nan nan nan nan nan nan nan nan nan nan nan nan nan nan nan nan nan nan nan nan nan nan nan nan nan nan nan nan nan nan nan nan nan nan nan nan 18 20 19 21 21 22 22 21 22 26 27 27 26 24 24 21
nan nan nan nan nan nan nan nan nan nan nan nan nan nan nan nan nan nan nan nan nan nan nan nan nan nan nan nan nan nan nan nan nan nan nan nan nan nan nan nan nan nan nan nan nan nan nan nan nan nan nan nan nan nan nan nan nan nan nan nan nan nan nan nan nan nan nan nan nan nan nan nan 19 19 18 19 18 19 19 20 21 23 26 26 26 26 24 23
nan nan nan nan nan nan nan nan nan nan nan nan nan nan nan nan nan nan nan nan nan nan nan nan nan nan nan nan nan nan nan nan nan nan nan nan nan nan nan nan nan nan nan nan nan nan nan nan nan nan nan nan nan nan nan nan nan nan nan nan nan nan nan nan nan nan nan nan nan nan nan nan 17 19 15 17 16 15 16 18 20 21 24 25 27 28 28 26
nan nan nan nan nan nan nan nan nan nan nan nan nan nan nan nan nan nan nan nan nan nan nan nan nan nan nan nan nan nan nan nan nan nan nan nan nan nan nan nan nan nan nan nan nan nan nan nan nan nan nan nan nan nan nan nan nan nan nan nan nan nan nan nan nan nan nan nan nan nan nan nan 24 19 16 15 15 13 16 18 20 22 24 25 26 28 29 29
nan nan nan nan nan nan nan nan nan nan nan nan nan nan nan nan nan nan nan nan nan nan nan nan nan nan nan nan nan nan nan nan nan nan nan nan nan nan nan nan nan nan 21 19 nan nan nan nan nan nan nan nan nan nan nan nan nan nan nan nan nan nan nan nan nan nan nan nan nan nan nan nan nan 18 16 16 13 12 13 15 17 21 23 25 27 26 28 30
nan nan nan nan nan nan nan nan nan nan nan nan nan nan nan nan nan nan nan nan nan nan nan nan nan nan nan nan nan nan nan nan nan nan nan nan nan nan nan nan nan 20 25 nan 14 nan nan nan nan 12 nan nan nan nan nan nan nan nan nan nan nan nan nan nan nan nan 20 nan nan nan nan nan nan nan nan 16 14 12 12 13 17 19 21 22 25 27 27 28
nan nan nan nan nan nan nan nan nan nan nan nan nan nan nan nan nan nan nan nan nan nan nan nan nan nan nan nan nan nan nan nan nan nan nan nan nan nan nan nan nan 24 20 nan nan nan nan nan nan nan nan nan nan nan nan nan nan nan nan nan nan nan nan nan nan nan nan nan nan 18 14 nan nan nan nan 15 14 11 12 14 16 17 18 20 21 23 26 27
nan nan nan nan nan nan nan nan nan nan nan nan nan nan nan nan nan nan nan nan nan nan nan nan nan nan nan nan nan nan nan nan nan nan nan nan nan nan nan nan nan nan nan nan nan 23 nan nan nan nan nan nan nan nan nan nan nan nan nan nan nan nan nan nan nan nan nan nan nan nan nan nan nan nan 16 16 14 12 15 17 17 16 15 15 16 20 24 26
nan nan nan nan nan nan nan nan nan nan nan nan nan nan nan nan nan nan nan nan nan nan nan nan nan nan nan nan nan nan nan nan nan nan nan nan nan nan nan nan nan nan nan nan nan nan nan 27 nan nan nan nan nan nan nan nan nan nan nan nan nan nan nan nan nan nan nan nan nan nan 8 8 nan 19 18 17 15 13 14 15 15 15 15 15 13 16 22 26
nan nan nan nan nan nan nan nan nan nan nan nan nan nan nan nan nan nan nan nan nan nan nan nan nan nan nan nan nan nan nan nan nan nan nan nan nan nan nan nan nan nan nan nan nan nan nan 28 nan nan nan nan nan nan nan nan nan nan nan nan nan nan nan nan nan nan nan nan nan nan nan nan 20 18 18 16 15 13 14 15 16 16 17 15 13 15 20 25
nan nan nan nan nan nan nan nan nan nan nan nan nan nan nan nan nan nan nan nan nan nan nan nan nan nan nan nan nan nan nan nan nan nan nan nan nan nan nan nan nan nan nan nan nan nan nan 26 nan nan nan nan nan nan nan nan nan nan nan nan nan nan nan nan nan nan nan nan nan nan nan nan 17 16 13 15 14 15 15 16 17 17 17 14 13 15 18 23
Wind_Direction
nan nan nan nan nan nan nan nan nan nan nan nan nan nan nan nan nan nan nan nan nan nan nan nan nan nan nan nan nan nan nan nan nan nan nan nan nan 262 265 267 288 298 330 333 315 351 5 27 45 49 68 71 85 85 85 80 86 77 75 86 nan 148 124 182 144 170 48 3 340 3 30 21 10 25 15 21 20 326 338 334 319 287 243 284 300 309 318 322
nan nan nan nan nan nan nan nan nan nan nan nan nan nan nan nan nan nan nan nan nan nan nan nan nan nan nan nan nan nan nan nan nan nan nan nan nan 269 264 276 286 304 335 320 338 4 8 26 52 56 74 73 81 97 87 87 81 86 83 84 135 120 157 120 156 146 107 339 342 345 20 53 13 19 16 33 3 352 344 324 342 318 304 309 318 320 329 335
nan nan nan nan nan nan nan nan nan nan nan nan nan nan nan nan nan nan nan nan nan nan nan nan nan nan nan nan nan nan nan nan nan nan nan nan nan nan nan 286 296 307 332 294 324 25 124 170 63 75 77 99 104 114 104 101 85 94 97 75 100 127 90 153 121 147 115 75 351 349 354 57 354 31 359 49 9 6 356 332 345 344 330 332 330 334 338 343
nan nan nan nan nan nan nan nan nan nan nan nan nan nan nan nan nan nan nan nan nan nan nan nan nan nan nan nan nan nan nan nan nan nan nan 273 278 nan 288 290 296 313 284 225 239 187 198 173 84 nan nan nan 119 109 103 116 90 106 86 116 65 95 60 112 114 108 87 73 4 350 350 17 7 28 11 26 20 13 27 329 340 343 342 339 341 341 345 348
nan nan nan nan nan nan nan nan nan nan nan nan nan nan nan nan nan nan nan nan nan nan nan nan nan nan nan nan nan nan nan nan nan nan nan 275 279 290 290 290 299 297 nan nan nan nan nan 188 130 nan nan nan 115 57 186 119 126 89 157 134 77 57 53 203 108 105 80 74 45 353 11 345 351 45 18 16 78 270 239 340 312 336 342 345 345 344 347 349
nan nan nan nan nan nan nan nan nan nan nan nan nan nan nan nan nan nan nan nan nan nan nan nan nan nan nan nan nan nan nan nan nan nan 272 272 283 289 291 293 290 262 nan nan nan nan nan 225 143 nan nan nan nan nan 238 165 100 92 8 34 145 133 99 86 288 287 54 17 25 14 332 325 4 25 43 22 26 275 137 297 322 332 343 343 346 346 345 347
nan nan nan nan nan nan nan nan nan nan nan nan nan nan nan nan nan nan nan nan nan nan nan nan nan nan nan nan nan nan nan nan nan 260 281 280 287 294 292 290 300 289 nan nan nan nan nan nan nan nan nan nan nan nan 260 259 119 162 245 90 220 136 299 26 315 318 309 335 322 353 21 357 6 26 6 42 314 302 223 314 320 326 337 343 346 351 341 341
nan nan nan nan nan nan nan nan nan nan nan nan nan nan nan nan nan nan nan nan nan nan nan nan nan nan nan nan nan nan nan nan nan 267 283 281 294 295 302 nan 298 286 293 nan nan nan nan nan nan nan nan nan nan nan 246 321 232 233 284 217 277 169 298 49 359 310 303 291 312 335 6 343 13 152 346 30 281 302 301 316 326 332 339 346 348 349 338 337
nan nan nan nan nan nan nan nan nan nan nan nan nan nan nan nan nan nan nan nan nan nan nan nan nan nan nan nan nan nan nan nan nan 279 nan nan nan nan nan nan nan nan 281 nan nan nan nan nan nan nan nan nan nan 197 247 152 278 236 264 288 297 259 250 93 19 336 296 296 306 322 322 340 358 41 39 327 314 292 306 329 333 336 343 347 351 347 338 340
nan nan nan nan nan nan nan nan nan nan nan nan nan nan nan nan nan nan nan nan nan nan nan nan nan nan nan nan nan nan nan nan 267 nan nan nan nan nan nan nan nan nan nan nan 272 nan nan nan nan nan nan nan 193 223 230 211 249 255 281 275 262 274 286 216 64 28 304 295 300 305 291 244 348 24 286 218 326 304 316 330 337 339 343 351 350 348 344 343
nan nan nan nan nan nan nan nan nan nan nan nan nan nan nan nan nan nan nan nan nan nan nan nan nan nan nan nan nan nan nan nan 271 282 nan nan nan nan nan nan nan nan nan nan 274 nan nan nan nan nan nan 217 193 245 225 243 248 270 281 290 291 291 276 288 283 157 45 331 302 302 310 321 295 359 246 325 320 317 314 332 340 345 340 349 348 349 348 342
nan nan nan nan nan nan nan nan nan nan nan nan nan nan nan nan nan nan nan nan nan nan nan nan nan nan nan nan nan nan nan nan nan nan nan nan nan nan nan nan nan nan nan nan nan nan nan nan nan nan nan nan 223 246 251 248 256 271 281 300 293 312 301 256 259 235 94 316 327 309 323 323 319 301 267 298 318 319 320 332 344 345 340 345 347 350 350 341
nan nan nan nan nan nan nan nan nan nan nan nan nan nan nan nan nan nan nan nan nan nan nan nan nan nan nan nan nan nan nan nan nan nan nan nan nan nan nan nan nan nan nan nan nan nan nan nan nan nan nan nan 224 225 235 249 257 274 276 241 306 317 294 266 278 256 308 272 300 334 8 328 324 290 292 287 310 314 320 340 345 345 345 348 352 352 350 340
nan nan nan nan nan nan nan nan nan nan nan nan nan nan nan nan nan nan nan nan nan nan nan nan nan nan nan nan nan nan nan nan nan nan nan nan nan nan nan nan nan nan nan nan nan nan nan nan nan nan nan nan 229 264 277 264 274 254 251 268 249 257 269 270 258 254 297 267 295 320 348 260 284 289 290 296 306 315 326 343 339 341 348 350 355 360 352 341
nan nan nan nan nan nan nan nan nan nan nan nan nan nan nan nan nan nan nan nan nan nan nan nan nan nan nan nan nan nan nan nan nan nan nan nan nan nan nan nan nan nan nan nan nan nan nan nan nan nan nan nan 240 264 261 259 265 258 265 266 263 nan 265 271 265 256 247 280 283 291 4 294 275 273 280 290 302 317 325 341 336 337 345 354 357 5 350 336
nan nan nan nan nan nan nan nan nan nan nan nan nan nan nan nan nan nan nan nan nan nan nan nan nan nan nan nan nan nan nan nan nan nan nan nan nan nan nan nan nan nan nan nan nan nan nan nan nan nan nan 262 259 241 nan nan 273 270 nan nan nan nan nan 285 274 270 260 255 296 324 295 290 262 246 268 280 296 315 320 324 329 333 344 352 1 5 351 339
nan nan nan nan nan nan nan nan nan nan nan nan nan nan nan nan nan nan nan nan nan nan nan nan nan nan nan nan nan nan nan nan nan nan nan nan nan nan nan nan nan nan nan nan nan nan nan nan nan nan nan nan 234 nan nan nan nan nan nan nan nan nan nan 254 274 267 260 263 279 307 313 256 294 273 267 284 302 314 319 318 323 331 346 359 6 10 355 10
nan nan nan nan nan nan nan nan nan nan nan nan nan nan nan nan nan nan nan nan nan nan nan nan nan nan nan nan nan nan nan nan nan nan nan nan nan nan nan nan nan nan nan nan nan nan nan nan nan nan nan nan nan nan nan nan nan nan nan nan nan nan 259 237 245 265 268 282 272 284 285 259 273 272 262 286 305 309 315 312 332 335 356 4 16 20 16 19
nan nan nan nan nan nan nan nan nan nan nan nan nan nan nan nan nan nan nan nan nan nan nan nan nan nan nan nan nan nan nan nan nan nan nan nan nan nan nan nan nan nan nan nan nan nan nan nan nan nan nan nan nan nan nan nan nan nan nan nan nan nan nan nan 256 264 250 257 276 277 234 260 290 281 271 273 296 310 319 306 306 332 6 17 22 13 47 51
nan nan nan nan nan nan nan nan nan nan nan nan nan nan nan nan nan nan nan nan nan nan nan nan nan nan nan nan nan nan nan nan nan nan nan nan nan nan nan nan nan nan nan nan nan nan nan nan nan nan nan nan nan nan nan nan nan nan nan nan nan nan nan 273 271 260 263 248 251 222 219 233 261 294 283 271 279 306 316 308 291 346 21 27 23 0 32 53
nan nan nan nan nan nan nan nan nan nan nan nan nan nan nan nan nan nan nan nan nan nan nan nan nan nan nan nan nan nan nan nan nan nan nan nan nan nan nan nan nan nan nan nan nan nan nan nan nan nan nan nan nan nan nan nan nan nan nan nan nan nan 256 270 269 270 276 246 242 234 218 234 270 303 294 268 277 317 322 310 320 3 33 40 33 9 9 21
nan nan nan nan nan nan nan nan nan nan nan nan nan nan nan nan nan nan nan nan nan nan nan nan nan nan nan nan nan nan nan nan nan nan nan nan nan nan nan nan nan nan nan nan nan nan nan nan nan nan nan nan nan nan nan nan nan nan nan nan nan nan 266 273 286 287 274 274 236 217 186 251 289 312 306 281 257 236 278 311 323 15 20 42 45 26 15 14
nan nan nan nan nan nan nan nan nan nan nan nan nan nan nan nan nan nan nan nan nan nan nan nan nan nan nan nan nan nan nan nan nan nan nan nan nan nan nan nan nan nan nan nan nan nan nan nan nan nan nan nan nan nan nan nan nan nan nan nan nan 258 nan nan 297 290 291 275 215 190 170 237 282 306 314 281 244 234 215 198 121 57 39 34 38 31 18 14
nan nan nan nan nan nan nan nan nan nan nan nan nan nan nan nan nan nan nan nan nan nan nan nan nan nan nan nan nan nan nan nan nan nan nan nan nan nan nan nan nan nan nan nan nan nan nan nan nan nan nan nan nan nan nan nan nan nan nan nan nan nan nan nan 274 287 293 304 301 173 146 317 299 307 316 290 251 235 229 205 166 137 98 58 44 35 27 15
nan nan nan nan nan nan nan nan nan nan nan nan nan nan nan nan nan nan nan nan nan nan nan nan nan nan nan nan nan nan nan nan nan nan nan nan nan nan nan nan nan nan nan nan nan nan nan nan nan nan nan nan nan nan nan nan nan nan nan nan nan nan nan 275 281 296 315 303 281 222 195 264 279 295 310 270 247 264 230 175 142 86 76 79 65 56 40 22
nan nan nan nan nan nan nan nan nan nan nan nan nan nan nan nan nan nan nan nan nan nan nan nan nan nan nan nan nan nan nan nan nan nan nan nan nan nan nan nan nan nan nan nan nan nan nan nan nan nan nan nan nan nan nan nan nan nan nan nan nan nan nan 282 284 287 222 nan 266 253 205 225 285 281 293 259 234 256 232 172 167 117 72 42 62 76 48 17
nan nan nan nan nan nan nan nan nan nan nan nan nan nan nan nan nan nan nan nan nan nan nan nan nan nan nan nan nan nan nan nan nan nan nan nan nan nan nan nan nan nan nan nan nan nan nan nan nan nan nan nan nan nan nan nan nan nan 249 nan nan nan nan 283 275 256 232 257 276 285 233 209 251 274 290 272 238 220 231 191 171 184 83 20 327 43 73 50
nan nan nan nan nan nan nan nan nan nan nan nan nan nan nan nan nan nan nan nan nan nan nan nan nan nan nan nan nan nan nan nan nan nan nan nan nan nan nan nan nan nan nan nan nan nan nan nan nan nan nan nan nan nan nan nan nan 233 247 nan nan nan 274 281 283 261 251 223 nan 274 271 213 245 261 284 287 233 207 188 166 175 182 194 220 282 347 31 75
nan nan nan nan nan nan nan nan nan nan nan nan nan nan nan nan nan nan nan nan nan nan nan nan nan nan nan nan nan nan nan nan nan nan nan nan nan nan nan nan nan nan nan nan nan nan nan nan nan nan nan nan nan nan nan nan nan 260 246 250 263 268 280 297 289 267 280 296 nan 241 226 201 nan 281 288 319 289 259 130 134 157 207 210 225 244 262 254 257
nan nan nan nan nan nan nan nan nan nan nan nan nan nan nan nan nan nan nan nan nan nan nan nan nan nan nan nan nan nan nan nan nan nan nan nan nan nan nan nan nan nan nan nan nan nan nan nan nan nan nan nan nan nan nan nan 197 267 286 296 295 296 298 303 289 289 304 313 261 238 230 200 nan 257 261 289 295 318 295 251 196 192 224 249 247 256 258 254
nan nan nan nan nan nan nan nan nan nan nan nan nan nan nan nan nan nan nan nan nan nan nan nan nan nan nan nan nan nan nan nan nan nan nan nan nan nan nan nan nan nan nan nan nan nan nan nan nan nan nan nan nan nan 254 260 309 318 310 318 303 300 309 313 292 298 nan nan 241 242 220 212 201 255 257 251 261 265 279 291 319 286 223 254 266 270 277 273
nan nan nan nan nan nan nan nan nan nan nan nan nan nan nan nan nan nan nan nan nan nan nan nan nan nan nan nan nan nan nan nan nan nan nan nan nan nan nan nan nan nan nan nan nan nan nan nan nan nan nan nan 343 303 286 325 345 355 323 332 nan 289 291 320 299 nan nan 248 nan 244 230 222 224 221 229 254 259 267 260 258 281 295 277 237 253 267 270 273
nan nan nan nan nan nan nan nan nan nan nan nan nan nan nan nan nan nan nan nan nan nan nan nan nan nan nan nan nan nan nan nan nan nan nan nan nan nan nan nan nan nan nan nan nan nan nan nan nan nan nan 32 59 nan 293 337 339 357 337 302 nan nan nan nan nan nan nan 273 259 259 259 206 nan nan 242 233 247 246 250 258 255 263 291 301 257 254 259 260
nan nan nan nan nan nan nan nan nan nan nan nan nan nan nan nan nan nan nan nan nan nan nan nan nan nan nan nan nan nan nan nan nan nan nan nan nan nan nan nan nan nan nan nan nan nan nan nan nan nan nan nan 56 nan nan nan nan 3 nan nan nan nan nan nan nan nan nan nan 262 276 278 225 nan 242 238 245 249 247 250 252 254 260 253 258 295 290 277 256
nan nan nan nan nan nan nan nan nan nan nan nan nan nan nan nan nan nan nan nan nan nan nan nan nan nan nan nan nan nan nan nan nan nan nan nan nan nan nan nan nan nan nan nan nan nan nan nan nan nan nan 303 50 180 152 nan nan 297 295 nan nan nan nan nan nan nan nan nan nan 290 244 nan nan 248 250 248 249 252 252 257 264 275 276 277 279 291 303 267
nan nan nan nan nan nan nan nan nan nan nan nan nan nan nan nan nan nan nan nan nan nan nan nan nan nan nan nan nan nan nan nan nan nan nan nan nan nan nan nan nan nan nan nan nan nan nan nan nan nan nan nan nan nan 61 nan nan 300 nan nan nan nan nan nan nan 257 nan nan nan nan nan nan nan nan 262 252 243 245 254 256 260 267 272 277 279 279 294 288
nan nan nan nan nan nan nan nan nan nan nan nan nan nan nan nan nan nan nan nan nan nan nan nan nan nan nan nan nan nan nan nan nan nan nan nan nan nan nan nan nan nan nan nan nan nan nan nan nan nan nan nan nan 237 263 286 nan nan nan nan nan nan nan nan nan 285 nan nan 278 nan nan nan nan nan nan 259 250 252 250 251 255 259 260 270 275 273 282 300
nan nan nan nan nan nan nan nan nan nan nan nan nan nan nan nan nan nan nan nan nan nan nan nan nan nan nan nan nan nan nan nan nan nan nan nan nan nan nan nan nan nan nan nan nan nan nan nan nan nan nan nan nan nan 294 278 208 nan nan nan nan nan nan nan nan nan nan nan nan nan nan nan nan nan nan 252 246 251 248 246 246 256 261 256 266 274 271 273
nan nan nan nan nan nan nan nan nan nan nan nan nan nan nan nan nan nan nan nan nan nan nan nan nan nan nan nan nan nan nan nan nan nan nan nan nan nan nan nan nan nan nan nan nan nan nan nan nan nan nan nan nan nan nan nan nan 264 nan nan nan nan nan nan nan nan nan nan nan nan nan nan nan nan nan 240 247 247 246 245 243 240 248 248 247 257 267 269
nan nan nan nan nan nan nan nan nan nan nan nan nan nan nan nan nan nan nan nan nan nan nan nan nan nan nan nan nan nan nan nan nan nan nan nan nan nan nan nan nan nan nan nan nan nan nan nan nan nan nan nan nan nan nan nan nan nan nan nan nan nan nan nan nan nan nan nan nan nan nan nan 262 248 238 246 247 249 243 241 242 239 239 241 241 238 242 247
nan nan nan nan nan nan nan nan nan nan nan nan nan nan nan nan nan nan nan nan nan nan nan nan nan nan nan nan nan nan nan nan nan nan nan nan nan nan nan nan nan nan nan nan nan nan nan nan nan nan nan nan nan nan nan nan nan nan nan nan nan nan nan nan nan nan nan nan nan nan nan nan 270 254 247 243 243 244 247 239 241 241 238 234 236 240 237 237
nan nan nan nan nan nan nan nan nan nan nan nan nan nan nan nan nan nan nan nan nan nan nan nan nan nan nan nan nan nan nan nan nan nan nan nan nan nan nan nan nan nan nan nan nan nan nan nan nan nan nan nan nan nan nan nan nan nan nan nan nan nan nan nan nan nan nan nan nan nan nan nan 251 261 252 247 240 237 239 239 240 241 235 233 232 229 234 235
nan nan nan nan nan nan nan nan nan nan nan nan nan nan nan nan nan nan nan nan nan nan nan nan nan nan nan nan nan nan nan nan nan nan nan nan nan nan nan nan nan nan nan nan nan nan nan nan nan nan nan nan nan nan nan nan nan nan nan nan nan nan nan nan nan nan nan nan nan nan nan nan 276 266 256 255 247 238 239 239 240 243 242 236 233 230 230 231
nan nan nan nan nan nan nan nan nan nan nan nan nan nan nan nan nan nan nan nan nan nan nan nan nan nan nan nan nan nan nan nan nan nan nan nan nan nan nan nan nan nan nan nan nan nan nan nan nan nan nan nan nan nan nan nan nan nan nan nan nan nan nan nan nan nan nan nan nan nan nan nan 282 276 260 262 258 251 251 251 248 249 248 241 236 230 228 229
nan nan nan nan nan nan nan nan nan nan nan nan nan nan nan nan nan nan nan nan nan nan nan nan nan nan nan nan nan nan nan nan nan nan nan nan nan nan nan nan nan nan nan nan nan nan nan nan nan nan nan nan nan nan nan nan nan nan nan nan nan nan nan nan nan nan nan nan nan nan nan nan 283 278 265 262 257 254 254 253 257 254 249 247 242 234 230 229
nan nan nan nan nan nan nan nan nan nan nan nan nan nan nan nan nan nan nan nan nan nan nan nan nan nan nan nan nan nan nan nan nan nan nan nan nan nan nan nan nan nan 233 225 nan nan nan nan nan nan nan nan nan nan nan nan nan nan nan nan nan nan nan nan nan nan nan nan nan nan nan nan nan 263 267 261 257 253 260 263 261 260 257 252 247 241 237 232
nan nan nan nan nan nan nan nan nan nan nan nan nan nan nan nan nan nan nan nan nan nan nan nan nan nan nan nan nan nan nan nan nan nan nan nan nan nan nan nan nan 230 245 nan 248 nan nan nan nan 256 nan nan nan nan nan nan nan nan nan nan nan nan nan nan nan nan 254 nan nan nan nan nan nan nan nan 257 266 263 261 266 269 265 258 254 249 245 241 238
nan nan nan nan nan nan nan nan nan nan nan nan nan nan nan nan nan nan nan nan nan nan nan nan nan nan nan nan nan nan nan nan nan nan nan nan nan nan nan nan nan 245 249 nan nan nan nan nan nan nan nan nan nan nan nan nan nan nan nan nan nan nan nan nan nan nan nan nan nan 247 250 nan nan nan nan 258 259 262 267 269 270 266 269 266 259 250 243 241
nan nan nan nan nan nan nan nan nan nan nan nan nan nan nan nan nan nan nan nan nan nan nan nan nan nan nan nan nan nan nan nan nan nan nan nan nan nan nan nan nan nan nan nan nan 238 nan nan nan nan nan nan nan nan nan nan nan nan nan nan nan nan nan nan nan nan nan nan nan nan nan nan nan nan 255 263 266 258 264 267 272 280 280 275 265 253 246 241
nan nan nan nan nan nan nan nan nan nan nan nan nan nan nan nan nan nan nan nan nan nan nan nan nan nan nan nan nan nan nan nan nan nan nan nan nan nan nan nan nan nan nan nan nan nan nan 255 nan nan nan nan nan nan nan nan nan nan nan nan nan nan nan nan nan nan nan nan nan nan 238 235 nan 263 269 269 268 267 269 275 279 283 283 283 273 256 247 241
nan nan nan nan nan nan nan nan nan nan nan nan nan nan nan nan nan nan nan nan nan nan nan nan nan nan nan nan nan nan nan nan nan nan nan nan nan nan nan nan nan nan nan nan nan nan nan 260 nan nan nan nan nan nan nan nan nan nan nan nan nan nan nan nan nan nan nan nan nan nan nan nan 269 269 273 272 273 273 272 275 278 277 282 288 280 259 246 243
nan nan nan nan nan nan nan nan nan nan nan nan nan nan nan nan nan nan nan nan nan nan nan nan nan nan nan nan nan nan nan nan nan nan nan nan nan nan nan nan nan nan nan nan nan nan nan 268 nan nan nan nan nan nan nan nan nan nan nan nan nan nan nan nan nan nan nan nan nan nan nan nan 269 272 272 276 275 272 268 270 274 276 275 282 281 264 250 243